Regional Weather Roundup
Issued by NWS Grand Forks, ND

Home | Current Version | Previous Version | Graphics & Text | Print | Product List | Glossary On
Versions: 1 2 3 4 5 6 7 8 9 10 11 12 13 14 15 16 17 18 19 20 21 22 23 24 25 26 27 28 29 30 31 32 33 34 35 36 37 38 39 40 41 42 43 44 45 46 47 48 49 50
000
ASUS43 KFGF 240131
RWRFGF
PRAIRIE TO PINES  WEATHER ROUNDUP
NATIONAL WEATHER SERVICE EASTERN NORTH DAKOTA/GRAND FORKS ND
700 PM CST TUE JAN 23 2018

 **SATELLITE DATA USED TO AUGMENT SKY COVER AT AUTOMATED STATIONS**
 *****  WEATHER ACROSS EASTERN NORTH DAKOTA  *****

CITY           SKY/WX    TMP DP  RH WIND       PRES   REMARKS
GRAND FORKS    CLOUDY    23  19  85 NW10      30.12S WCI  12
GRAND FRKS AFB CLOUDY    22  18  82 W5        30.12S WCI  16
DEVILS LAKE    CLOUDY    22  18  85 NW9       30.12R WCI  12
FARGO          CLOUDY    24  21  88 S5        30.13S WCI  18
WAHPETON ARPT  CLOUDY    25  19  80 CALM      30.15S
$$

 ***** WEATHER ACROSS CENTRAL AND WESTERN NORTH DAKOTA  *****

CITY           SKY/WX    TMP DP  RH WIND       PRES   REMARKS
BISMARCK       FAIR      23  20  88 N6        30.16R WCI  16
MINOT          CLOUDY    24  20  84 W7        30.11S WCI  16
JAMESTOWN      CLOUDY    19  17  92 NW12      30.14R WCI   7
MINOT AFB      CLOUDY    23  19  86 W8        30.10S WCI  14
GARRISON         N/A     11   9  92 CALM      30.13R
WILLISTON      FAIR      20  16  84 SW6       30.10F WCI  12
DICKINSON      FAIR      22  18  85 W10       30.09S WCI  11
HETTINGER      FAIR      24  19  81 W8        30.14S WCI  15
$$

 *****  OTHER AIRPORT OBSERVATIONS IN OUR AREA  *****

CITY           SKY/WX    TMP DP  RH WIND       PRES   REMARKS
WALHALLA       FAIR      25  25 100 NW6       30.10R WCI  18
GRAFTON AIRPOR CLOUDY    23  19  86 NW8       30.14R WCI  14
VALLEY CITY AR CLOUDY    18  18 100 NW12      30.15S WCI   5
CANDO          CLOUDY    23  23 100 NW12      30.13R WCI  12
CAVALIER APRT    N/A     23  19  86 SW3       30.10S
GWINNER          N/A     27  23  86 NW12      30.13R WCI  16
SHEYENNE NWR     N/A     24  23  96 CALM      29.95S
ROLLA          CLOUDY    21  21 100 SW6       30.08S WCI  14
 ***** THE ABOVE OBSERVATIONS ARE NON NWS ARE NOT QUALITY
       CONTROLLED AND MAY MIS-REPORT RAIN FOR SNOW...
$$

  *****  WEATHER ACROSS NORTHERN MINNESOTA  *****

CITY           SKY/WX    TMP DP  RH WIND       PRES   REMARKS
FLAG ISLAND    CLOUDY    14   5  67 SE3       30.10S
WARROAD        FLURRIES  16  10  79 CALM      30.11S
ROSEAU         LGT SNOW  19  16  86 S7        30.11S WCI  10
HALLOCK        CLOUDY    21  21 100 SW3       30.11R
THF RVR FALLS  CLOUDY    19  18  93 S7        30.12S WCI  10
BAUDETTE       MOCLDY    11   0  61 SW6       30.10R WCI   1
WASKISH        FAIR       5   1  85 CALM      30.12R
CROOKSTON      MOCLDY    21  21 100 SW6       30.14R FOG     WCI  14
STEPHEN NDAWN    N/A     21  19  93 SW5         N/A  WCI  15
GREENBUSH NDAW   N/A     19  18  93 S8          N/A  WCI   9
$$
  *****  WEATHER ACROSS CENTRAL AND WEST MINNESOTA  *****

CITY           SKY/WX    TMP DP  RH WIND       PRES   REMARKS
FOSSTON        CLOUDY    18  16  93 S3        30.12S FOG
BEMIDJI        MOCLDY    12   8  85 NW3       30.11R
PARK RAPIDS    FAIR      13   8  81 W3        30.09S
ELBOW LAKE     CLOUDY    22  19  91 NW6       30.15R WCI  14
WADENA         CLOUDY    19  16  86 W6        30.12R WCI  11
DETROIT LAKES  CLOUDY    21  19  93 CALM      30.12S
MOORHEAD       CLOUDY    21  19  93 CALM      30.15R
FERGUS FALLS   CLOUDY    21  21 100 W7        30.14S WCI  13
MORRIS MN      CLOUDY    25  19  80 NW6       30.14R WCI  18
STAPLES        FAIR      12  10  92 W5        30.12R WCI   4
$$
  *****  WEATHER ELSEWHERE ACROSS MINNESOTA  *****

CITY           SKY/WX    TMP DP  RH WIND       PRES   REMARKS
DULUTH         FAIR      17   4  56 N3        30.09R
INTRNTL FALLS  FAIR      -1  -8  72 CALM      30.12S
ELY            FAIR       1  -6  71 CALM      30.11R
CLOQUET        FAIR      12   3  67 CALM      30.11R
WHEATON        CLOUDY    25  19  80 CALM      30.17S
BRAINERD       FAIR      17   8  67 CALM      30.11R
HIBBING        FAIR       6   0  76 CALM      30.11R
ALEXANDRIA     CLOUDY    21  17  84 W7        30.12R WCI  12
SAINT CLOUD    FAIR      21  14  74 CALM      30.13R
MINNEAPOLIS    MOCLDY    24  16  71 CALM      30.15R
$$

  *****  WEATHER ACROSS SOUTH DAKOTA  *****

CITY           SKY/WX    TMP DP  RH WIND       PRES   REMARKS
SIOUX FALLS    CLOUDY    25  24  96 CALM      30.14F
BROOKINGS      CLOUDY    23  21  92 NW7       30.13S WCI  15
WATERTOWN      FAIR      21  20  96 CALM      30.10S
HURON          FAIR      23  22  96 CALM      30.15R
SISSETON         N/A     23  20  88 CALM      30.13R
ABERDEEN       FAIR      25  21  85 NW7       30.15R WCI  17
MITCHELL       FAIR      28  25  88 CALM      30.16R
PIERRE         FAIR      27  22  81 W8        30.15R WCI  19
MOBRIDGE       FAIR      26  20  77 CALM      30.12R
RAPID CITY     FAIR      29  20  69 N9        30.20R WCI  20
$$

  *****  SOME WEATHER IN NEARBY STATES *****

CITY           SKY/WX    TMP DP  RH WIND       PRES   REMARKS
GLASGOW MT     FAIR      14   9  80 CALM      30.09F
GREAT FALLS MT FAIR      32  15  49 S13       30.02S WCI  22
CHEYENNE WY    FAIR      23  14  68 CALM      30.20R
SCOTTSBLUFF NE FAIR      26  17  68 W6        30.26R WCI  19
OMAHA NE       CLOUDY    26  21  81 CALM      30.22S
DES MOINES IA  CLOUDY    26  20  77 NW15      30.21R WCI  14
DAVENPORT IA   CLOUDY    27  20  75 NW14      30.17R WCI  16
CHICAGO IL     CLOUDY    30  22  72 NW12      30.08R WCI  20
EAU CLAIRE WI  CLOUDY    18  13  80 NW3       30.13S
LA CROSSE WI   CLOUDY    24  18  77 N6        30.15R WCI  17
$$

  *****  SOME NATIONAL WEATHER *****

CITY           SKY/WX    TMP DP  RH WIND       PRES   REMARKS
LA GUARDIA NY  FAIR      50  33  52 W17G31    29.66R
RALEIGH NC     FAIR      57  26  30 W9G21     29.88R
ATLANTA GA     FAIR      46  33  60 W8        30.09R
NEW ORLEANS LA FAIR      55  37  50 NW7       30.22R
OKLAHOMA CITY  FAIR      43  14  31 CALM      30.29R
ALBUQUERQUE NM FAIR      43  10  26 N7        30.27R
SALT LAKE CITY FAIR      36  27  69 CALM      30.31F
LOS ANGELES CA FAIR      63  50  62 W9        30.11S
BOISE ID       MOCLDY    42  27  55 S5        30.17S
SEATTLE WA     LGT RAIN  44  41  89 SE12      29.80F
$$

*** WEATHER ACROSS MANITOBA...SASKATCHEWAN AND ONTARIO ***
                ***ONTARIO***

CITY           SKY/WX    TMP DP  RH WIND       PRES   REMARKS
GERALDTON      CLEAR     -2  -9  71 N7        30.14R WCI -16
THUNDER BAY    CLEAR      5  -9  51 N6        30.19R WCI  -6
SIOUX LOOKOUT  CLOUDY     3  -6  66 VRB2      30.16R
TORONTO        CLOUDY    28  21  74 NW23G35   29.67R WCI  14
BIG TROUT LK   CLEAR    -13 -17  84 E3        30.31R
PICKLE LAKE    MOCLDY    -4 -11  71 E6        30.18S WCI -16
DRYDEN         CLOUDY     5  -4  66 NE7       30.12S WCI  -7
KENORA         CLOUDY    14  -2  48 SE3       30.09S
$$
                *** MANITOBA***

CITY           SKY/WX    TMP DP  RH WIND       PRES   REMARKS
BRANDON        CLOUDY    25  19  80 W12       30.06S WCI  14
DAUPHIN        FLURRIES  25  21  86 W12       30.03S WCI  14
ISLAND LAKE    LGT SNOW   3  -2  78 SE15      30.14F WCI -15
PILOT MOUND      N/A     23  18  80 NW10        N/A  WCI  12
THE PAS        MOCLDY     0  -8  71 N3        30.11R
THOMPSON       PTCLDY   -13 -18  77 NE8       30.20R WCI -30
WINNIPEG       FRZ DRZL  19  19 100 S12       30.08S FOG     WCI   7
CHURCHILL      MOCLDY   -18 -24  76 S6        30.43F FOG     WCI -33
GILLAM         CLEAR    -17 -22  76 E6        30.31R WCI -31
$$
                ***SASKATCHEWAN***

CITY           SKY/WX    TMP DP  RH WIND       PRES   REMARKS
ESTEVAN        CLEAR     12  10  92 S7        30.07F FOG     WCI   2
KINDERSLEY     CLEAR     21  16  79 E8        29.97F WCI  12
LLOYDMINSTER   PTCLDY    10   9  92 E6        29.97S WCI   1
PRINCE ALBERT  FLURRIES  12   7  79 E5        30.07F WCI   4
REGINA         MOCLDY    12  10  92 SE8       30.02S FOG     WCI   1
YORKTON        CLOUDY    25  21  86 W10       30.02S WCI  15
N. BATTLEFORD  FOG       18  16  93 E2        30.04S VSB 1/4
LA RONGE       CLEAR     -9 -13  84 CALM      30.12S
SASKATOON      CLOUDY    21  19  93 SW3       30.05S FOG
SWIFT CURRENT  CLEAR     23  16  74 SW12      29.97F WCI  12
$$
NOTE: THESE ARE AUTOMATED STATIONS WITH LIMITED QUALITY CONTROL
      "FAIR" INDICATES FEW OR NO CLOUDS BELOW 12,000 FEET WITH NO
      SIGNIFICANT WEATHER AND/OR OBSTRUCTIONS TO VISIBILITY.
      SKY/WX - SKY CONDITION AND SIGNIFICANT WEATHER.
      TMP - AIR TEMPERATURE.    DP   - DEWPOINT TEMPERATURE.
      RH  - RELATIVE HUMIDITY.  PRES - PRESSURE.
      HX  - HEAT INDEX.         WCI  - WIND CHILL INDEX.
$



USA.gov is the U.S. government's official web portal to all federal, state and local government web resources and services.